Weather History for Szolnok, Hungary

Change the Weather History Date:

Saturday, October 20, 2012

  Actual Average (LHBP) Record (LHBP)
Temperature  
Mean Temperature 58 °F -  
Max Temperature 73 °F 57 °F 140 °F (2003)
Min Temperature 42 °F 39 °F 24 °F (2007)
Degree Days  
Heating Degree Days 8    
Growing Degree Days 8 (Base 50)    
Moisture  
Dew Point 47 °F    
Average Humidity 72    
Maximum Humidity 93    
Minimum Humidity 44    
Precipitation  
Precipitation 0.00 in - - ()
Sea Level Pressure  
Sea Level Pressure 30.11 in    
Wind  
Wind Speed 2 mph ()    
Max Wind Speed 4 mph    
Max Gust Speed -    
Visibility 2.5 miles    
Events Fog    
Averages and records for this station are not official NWS values.
T = Trace of Precipitation, MM = Missing Value Source: Averaged Metar Reports

Daily Weather History Graph

Daily Weather History Graph

Search for Another Location

Airport:

Trip Planner

Search our weather history database for the weather conditions in past years. The results will help you decide how hot, cold, wet, or windy it might be!

Date:

Astronomy

Oct. 20, 2012 Rise Set
Actual Time 7:04 AM CEST 5:42 PM CEST
Civil Twilight 6:33 AM CEST 6:13 PM CEST
Nautical Twilight 5:58 AM CEST 6:48 PM CEST
Astronomical Twilight 5:22 AM CEST 7:23 PM CEST
Moon 12:37 PM CEST (10/20) 9:55 PM CEST (10/20)
Length of Visible Light 11h 39m
Length of Day
10h 37m
Waxing Crescent, 31% of the Moon is Illuminated
Oct 20
Waxing Crescent
Oct 22
First Quarter
Oct 29
Full
Nov 7
Last Quarter
Nov 13
New

Hourly Weather History & Observations

Time (CEST) Temp. Windchill Dew Point Humidity Pressure Visibility Wind Dir Wind Speed Gust Speed Precip Events Conditions
12:15 AM 48.2 °F - 44.6 °F 87% 30.12 in - ENE 2.2 mph - N/A   Clear
12:45 AM 50.0 °F - 44.6 °F 82% 30.12 in - East 2.2 mph - N/A   Clear
1:15 AM 48.2 °F - 44.6 °F 87% 30.12 in - East 4.5 mph - N/A   Clear
1:45 AM 48.2 °F - 44.6 °F 87% 30.12 in - East 2.2 mph - N/A   Clear
2:15 AM 46.4 °F - 42.8 °F 87% 30.12 in - Calm Calm - N/A   Clear
2:45 AM 46.4 °F - 44.6 °F 93% 30.12 in 3.7 mi NE 2.2 mph - N/A   Unknown
3:00 AM - - - N/A% - 1.9 mi ENE 4.5 mph - N/A Fog Light Fog
3:15 AM 46.4 °F - 44.6 °F 93% 30.12 in 3.1 mi NE 2.2 mph - N/A   Partly Cloudy
3:45 AM - - - N/A% - 1.9 mi ENE 4.5 mph - N/A Fog Light Fog
4:00 AM - - - N/A% - 0.9 mi ENE 4.5 mph - N/A   Mist
4:15 AM 44.6 °F - 42.8 °F 93% 30.12 in 3.1 mi East 2.2 mph - N/A   Partly Cloudy
4:45 AM 44.6 °F - 42.8 °F 93% 30.12 in 3.1 mi ENE 2.2 mph - N/A   Partly Cloudy
5:15 AM 44.6 °F - 42.8 °F 93% 30.09 in 3.1 mi Calm Calm - N/A   Scattered Clouds
5:45 AM 44.6 °F - 42.8 °F 93% 30.09 in 3.1 mi East 2.2 mph - N/A   Mostly Cloudy
6:00 AM - - - N/A% - 1.9 mi East 4.5 mph - N/A Fog Mist
6:15 AM 44.6 °F - 41.0 °F 87% 30.09 in 1.9 mi East 2.2 mph - N/A   Scattered Clouds
6:45 AM - - - N/A% - 0.9 mi East 4.5 mph - N/A   Mist
7:15 AM 42.8 °F - 41.0 °F 93% 30.09 in 1.2 mi East 2.2 mph - N/A Fog Shallow Fog
7:45 AM 42.8 °F 40.2 °F 41.0 °F 93% 30.12 in 1.9 mi East 4.5 mph - N/A   Scattered Clouds
8:15 AM 46.4 °F - 42.8 °F 87% 30.12 in 1.9 mi East 2.2 mph - N/A   Scattered Clouds
8:45 AM 48.2 °F - 44.6 °F 87% 30.12 in 3.1 mi East 2.2 mph - N/A   Scattered Clouds
9:15 AM 51.8 °F - 46.4 °F 82% 30.12 in 3.7 mi East 2.2 mph - N/A   Unknown
9:45 AM 55.4 °F - 48.2 °F 77% 30.12 in - East 2.2 mph - N/A   Clear
10:15 AM 59.0 °F - 48.2 °F 67% 30.12 in - Variable 2.2 mph - N/A   Clear
10:45 AM 62.6 °F - 48.2 °F 59% 30.12 in - South 2.2 mph - N/A   Clear
11:15 AM 64.4 °F - 48.2 °F 56% 30.12 in - South 4.5 mph - N/A   Clear
11:45 AM 68.0 °F - 48.2 °F 49% 30.12 in - South 4.5 mph - N/A   Clear
12:15 PM 68.0 °F - 50.0 °F 52% 30.12 in - Variable 2.2 mph - N/A   Clear
12:45 PM 71.6 °F - 50.0 °F 46% 30.12 in - Variable 2.2 mph - N/A   Clear
1:15 PM 71.6 °F - 50.0 °F 46% 30.12 in - Variable 2.2 mph - N/A   Clear
1:45 PM 73.4 °F - 50.0 °F 44% 30.09 in - Variable 2.2 mph - N/A   Clear
2:15 PM 73.4 °F - 50.0 °F 44% 30.09 in - Variable 4.5 mph - N/A   Clear
2:45 PM 73.4 °F - 51.8 °F 47% 30.09 in - SE 4.5 mph - N/A   Clear
3:15 PM 73.4 °F - 50.0 °F 44% 30.09 in - SE 4.5 mph - N/A   Clear
3:45 PM - - - N/A% - 3.1 mi Variable 4.5 mph - N/A   Clear
4:15 PM 73.4 °F - 51.8 °F 47% 30.09 in - Variable 2.2 mph - N/A   Clear
4:45 PM 73.4 °F - 50.0 °F 44% 30.09 in - SSE 2.2 mph - N/A   Clear
5:15 PM 71.6 °F - 50.0 °F 46% 30.09 in - Calm Calm - N/A   Clear
5:45 PM 66.2 °F - 50.0 °F 56% 30.09 in - Calm Calm - N/A   Clear
6:15 PM 62.6 °F - 50.0 °F 63% 30.09 in - Calm Calm - N/A   Clear
6:45 PM - - - N/A% - 3.1 mi Variable 4.5 mph - N/A   Clear
7:15 PM 59.0 °F - 50.0 °F 72% 30.09 in - NE 2.2 mph - N/A   Clear
7:45 PM 57.2 °F - 50.0 °F 77% 30.09 in - NE 4.5 mph - N/A   Clear
8:15 PM 57.2 °F - 50.0 °F 77% 30.09 in - ENE 4.5 mph - N/A   Clear
8:45 PM 57.2 °F - 48.2 °F 72% 30.12 in - ENE 4.5 mph - N/A   Clear
9:15 PM 55.4 °F - 48.2 °F 77% 30.12 in - East 2.2 mph - N/A   Clear
9:45 PM - - - N/A% - 3.1 mi Variable 4.5 mph - N/A   Clear
10:15 PM 55.4 °F - 48.2 °F 77% 30.12 in - Calm Calm - N/A   Clear
10:45 PM 53.6 °F - 48.2 °F 82% 30.12 in - Calm Calm - N/A   Clear
11:15 PM 50.0 °F - 46.4 °F 87% 30.12 in - Calm Calm - N/A   Clear
11:45 PM 51.8 °F - 48.2 °F 88% 30.12 in - NE 2.2 mph - N/A   Clear